Location: Cedar Ridge
(38.0658°N, 120.2769°W)
Time: 22:57:17
(UTC+00:00)

Cosmos 1763 Rocket - Pass Details

Date: 10 September 2024
Orbit: 730 x 776 km, 74.0° (Epoch: 12 October)

Event Time Altitude Azimuth Distance (km) Brightness Sun altitude
Rises 12:36:36 0° 332° (NNW) 3,189 6.6 -12.9°
Reaches altitude 10° 12:39:06 10° 324° (NW) 2,268 5.7 -12.4°
Maximum altitude 12:43:46 37° 259° (WSW) 1,167 3.9 -11.5°
Drops below altitude 10° 12:48:30 10° 193° (SSW) 2,283 5.7 -10.6°
Sets 12:51:01 0° 185° (S) 3,212 6.5 -10.1°
